Regional Weather Roundup
Issued by NWS

Home | Current Version | Previous Version | Graphics & Text | Print | Product List | Glossary On
Versions: 1 2 3 4 5 6 7 8 9 10 11 12 13 14 15 16 17 18 19 20 21 22 23 24 25 26 27 28 29 30 31 32 33 34 35 36 37 38 39 40 41 42 43 44 45 46 47 48 49 50
000
ASUS43 KLMK 220302
RWRKY
KENTUCKY REGIONAL WEATHER ROUNDUP
NATIONAL WEATHER SERVICE LOUISVILLE KY
1100 PM EDT SUN SEP 21 2014

NOTE "FAIR" INDICATES FEW OR NO CLOUDS BELOW 12,000 FEET
WITH NO SIGNIFICANT WEATHER AND/OR OBSTRUCTIONS TO VISIBILITY.

KYZ001>023-026-027-061>063-070>075-220400-
WESTERN AND SOUTH CENTRAL KENTUCKY

CITY           SKY/WX    TMP DP  RH WIND       PRES   REMARKS
PADUCAH        CLEAR     67  51  56 NW6       30.07R
HENDERSON      CLEAR     63  48  59 N5        30.09R
OWENSBORO      CLEAR     65  51  60 N8        30.08R
HOPKINSVILLE   CLEAR     67  49  53 N7        30.06R
BOWLING GREEN  CLEAR     67  49  52 NW3       30.05R
GLASGOW        CLEAR     62  49  62 CALM      30.04R
$$

KYZ024-025-028>034-038-045-046-053-220400-
NORTH CENTRAL KENTUCKY

CITY           SKY/WX    TMP DP  RH WIND       PRES   REMARKS
LOUISVILLE/SDF CLEAR     64  50  60 N10       30.06R
LOUISVILLE/LOU CLEAR     64  50  60 N8        30.06R
FORT KNOX      CLEAR     57  51  79 NW7       30.05S
$$

KYZ035>037-039>044-047>052-055>060-089>105-220400-
NORTHEAST KENTUCKY

CITY           SKY/WX    TMP DP  RH WIND       PRES   REMARKS
LEXINGTON      CLEAR     63  49  60 N9        30.05R
COVINGTON      CLEAR     59  46  62 NW9       30.05R
FRANKFORT      CLEAR     61  48  62 NW5       30.04R
$$

KYZ054-064>069-076>088-106>120-220400-
SOUTHEAST KENTUCKY

CITY           SKY/WX    TMP DP  RH WIND       PRES   REMARKS
JACKSON        CLEAR     64  48  56 NW7       30.02R
LONDON         CLEAR     60  50  69 CALM      30.03R
SOMERSET       CLEAR     63  45  51 CALM      30.04R
MIDDLESBORO    CLEAR     67  49  52 NW5       30.02R
MONTICELLO     CLEAR     57  53  86 CALM      30.05R
$$



USA.gov is the U.S. government's official web portal to all federal, state and local government web resources and services.